Tracking 31030 objects as of 15-Jul-2025
HD Live streaming from Space Station
objects crossing your sky now

CZ-4 DEB

Track CZ-4 DEB now!
10-day predictions


NORAD ID: 20855
Int'l Code: 1990-081T
Perigee: 852.1 km
Apogee: 887.1 km
Inclination: 98.8 °
Period: 102.2 minutes
Semi major axis: 7240 km
RCS: 7.4909 m2 (large)
Launch date: September 3, 1990
Source: People's Republic of China (PRC)
Launch site: Taiyaun Space Center, China (TSC)

Note: This is SATELLITE DEBRIS
Your satellite tracking list
Your tracking list is empty




NASA's NSSDC Master Catalog

Two Line Element Set (TLE):
1 20855U 90081T   25195.95533663  .00000072  00000-0  66325-4 0  9995
2 20855  98.7901 179.7517 0024200  10.4008  48.3497 14.09101708791816
Source of the keplerian elements: AFSPC